Flag for Finland Weather past 2 weeks in Espoo, Finland

Now
86 °F

Passing clouds.


Feels Like: 85 °F
Forecast: 58 / 83 °F
Wind: 10 mph from South

Location: Helsinki-Vantaa

Current Time: Jul 26, 2014 at 3:01:26 PM

Latest Report: Jul 26, 2014 at 2:20 PM


Visibility: N/A

Pressure: 30.12 "Hg

Humidity: 38%

Dew point: 57 °F

Location of EspooLocation

Historic Weather in Espoo — Graph

°F

Espoo temperature yesterday

Maximum temperature yesterday: 84 °F (at 1:20 PM)
Minimum temperature yesterday: 57 °F (at 4:50 AM)
Average temperature yesterday: 74 °F

Past Weeks' High & Low Weather Summary

 TemperatureHumidityPressure
High88 °F (Jul 26, 12:50 PM)100% (Jul 17, 5:50 AM)30.24 "Hg (Jul 17, 5:50 AM)
Low50 °F (Jul 12, 5:20 AM)31% (Jul 23, 5:20 PM)29.83 "Hg (Jul 13, 10:50 PM)
Average69 °F67%30.08 "Hg
* Reported Jul 11 1:20 PM — Jul 26 1:50 PM, Espoo, Weather by CustomWeather, © 2014

Note: Actual official high and low records may vary slightly from our data, if they occured in-between our weather recording intervals... More about our weather records

Advertising

Espoo weather history for previous 24 hours

 ConditionsComfort  
Time TempWeatherWind HumidityBarometerVisibility
1:50 PM
Jul 26
88 °FPassing clouds.9 mph38%30.12 "HgN/A
1:20 PM86 °FPassing clouds.9 mph38%30.12 "HgN/A
12:50 PM88 °FPassing clouds.8 mph33%30.12 "HgN/A
12:20 PM86 °FPassing clouds.6 mph35%30.12 "HgN/A
11:50 AM84 °FPassing clouds.6 mph37%30.15 "HgN/A
11:20 AM84 °FPassing clouds.6 mph33%30.15 "HgN/A
10:50 AM82 °FPassing clouds.6 mph40%30.15 "HgN/A
10:20 AM82 °FSunny.7 mph42%30.15 "Hg10 mi
9:50 AM81 °FPassing clouds.6 mph51%30.15 "HgN/A
9:20 AM79 °FSunny.5 mph54%30.15 "Hg10 mi
8:50 AM77 °FSunny.5 mph57%30.15 "Hg10 mi
8:20 AM73 °FSunny.5 mph69%30.15 "Hg10 mi
7:50 AM72 °FSunny.2 mph73%30.12 "Hg10 mi
7:20 AM68 °FSunny.3 mph83%30.12 "Hg10 mi
6:50 AM66 °FSunny.2 mph88%30.12 "Hg10 mi
6:20 AM63 °FSunny.3 mph94%30.12 "Hg10 mi
5:50 AM61 °FSunny.2 mph94%30.12 "Hg10 mi
5:20 AM61 °FFog.1 mph94%30.12 "HgN/A
4:50 AM59 °FFog.1 mph94%30.12 "HgN/A
4:20 AM61 °FClear.1 mph88%30.12 "Hg10 mi
3:50 AM63 °FClear.2 mph88%30.12 "Hg10 mi
3:20 AM63 °FClear.2 mph88%30.12 "Hg10 mi
2:50 AM63 °FClear.3 mph83%30.12 "Hg10 mi
2:20 AM66 °FClear.3 mph83%30.12 "Hg10 mi
1:50 AM66 °FClear.2 mph78%30.12 "Hg10 mi
1:20 AM64 °FClear.3 mph78%30.12 "Hg10 mi
12:50 AM66 °FClear.3 mph73%30.12 "Hg10 mi
12:20 AM68 °FClear.5 mph69%30.12 "Hg10 mi
11:50 PM
Jul 25
72 °FClear.6 mph61%30.12 "Hg10 mi
11:20 PM73 °FClear.7 mph53%30.12 "Hg10 mi
10:50 PM73 °FSunny.7 mph53%30.12 "Hg10 mi
10:20 PM75 °FSunny.6 mph50%30.12 "Hg10 mi
9:50 PM77 °FSunny.6 mph47%30.12 "Hg10 mi
9:20 PM79 °FSunny.7 mph42%30.12 "Hg10 mi
8:50 PM81 °FSunny.9 mph42%30.12 "Hg10 mi
8:20 PM81 °FSunny.10 mph51%30.12 "Hg10 mi
7:50 PM82 °FSunny.12 mph45%30.12 "Hg10 mi
7:20 PM82 °FSunny.10 mph45%30.12 "Hg10 mi
6:50 PM84 °FSunny.12 mph40%30.12 "Hg10 mi
6:20 PM84 °FSunny.12 mph40%30.12 "Hg10 mi
5:50 PM84 °FSunny.12 mph37%30.12 "Hg10 mi
5:20 PM84 °FPassing clouds.10 mph37%30.15 "HgN/A
4:50 PM84 °FSunny.12 mph37%30.15 "Hg10 mi
4:20 PM84 °FPassing clouds.12 mph37%30.15 "HgN/A
3:20 PM84 °FPassing clouds.9 mph37%30.15 "HgN/A
Weather by CustomWeather, © 2014

See weather overviewHow to use our weather pages